DW7229 Weather Reports


time (UTC)temp
C
wind
direction
speed
KPH
gust
KPH
rain 1hr
cm
rain 24hr
cm
rain mn
cm
humidity
%
barometer
mb
20200531070518 16 242 4.8 8.0 0.00 0.15 0.00 68 1009.0
20200531070029 16 266 4.8 9.7 0.00 0.15 0.00 67 1009.0
20200531065521 16 238 4.8 9.7 0.00 0.15 0.00 67 1009.0
20200531065032 16 163 4.8 11.3 0.00 0.15 0.00 66 1008.9
20200531064525 16 287 3.2 6.4 0.00 0.15 0.00 66 1009.0
20200531064017 16 199 4.8 8.0 0.00 0.15 0.00 66 1009.0
20200531063528 16 228 4.8 9.7 0.00 0.15 0.00 66 1009.0
20200531063021 16 201 3.2 8.0 0.00 0.15 0.00 66 1009.1
20200531062531 16 202 6.4 12.9 0.00 0.15 0.00 66 1009.1
20200531062024 17 278 3.2 6.4 0.00 0.15 0.00 66 1009.1
20200531061516 17 197 3.2 8.0 0.00 0.15 0.00 66 1009.1
20200531061027 17 258 3.2 6.4 0.00 0.15 0.00 65 1009.1
20200531060520 17 250 4.8 11.3 0.00 0.15 0.00 65 1009.0
20200531060031 17 217 3.2 6.4 0.00 0.15 0.00 65 1009.0
20200531055523 17 250 3.2 6.4 0.00 0.15 0.00 65 1009.0
20200531055017 17 200 3.2 6.4 0.00 0.15 0.00 65 1008.9
20200531054526 17 200 6.4 11.3 0.00 0.15 0.00 64 1009.0
20200531054019 17 262 4.8 9.7 0.00 0.15 0.00 64 1009.1
20200531053530 17 268 4.8 8.0 0.00 0.15 0.00 64 1009.1
20200531053023 17 227 4.8 9.7 0.00 0.15 0.00 64 1009.0
20200531052515 17 241 3.2 8.0 0.00 0.15 0.00 63 1009.0
20200531052026 17 121 3.2 6.4 0.00 0.15 0.00 63 1009.0
20200531051519 17 217 3.2 8.0 0.00 0.15 0.00 63 1009.0
20200531051029 17 245 1.6 6.4 0.00 0.15 0.00 62 1009.0
20200531050522 17 180 1.6 6.4 0.00 0.15 0.00 60 1008.6
20200531050027 17 222 1.6 4.8 0.00 0.15 0.00 60 1008.6
20200531045525 17 123 3.2 6.4 0.00 0.15 0.00 58 1008.7
20200531045018 17 319 3.2 6.4 0.00 0.15 0.00 58 1008.7
20200531044522 18 271 1.6 6.4 0.00 0.15 0.00 58 1008.7
20200531044021 18 269 4.8 8.0 0.00 0.15 0.00 58 1008.7
20200531043520 18 332 4.8 8.0 0.00 0.15 0.00 58 1008.7
20200531043019 18 262 3.2 6.4 0.00 0.15 0.00 58 1008.8
20200531042517 18 233 3.2 8.0 0.00 0.15 0.00 58 1008.8
20200531042016 18 257 4.8 6.4 0.00 0.15 0.00 58 1008.8
20200531041515 18 99 4.8 11.3 0.00 0.15 0.00 58 1008.8
20200531041032 18 212 6.4 16.1 0.00 0.15 0.00 59 1008.8
20200531040524 17 303 1.6 6.4 0.00 0.15 0.00 60 1008.8
20200531040017 17 236 3.2 6.4 0.00 0.15 0.00 61 1008.8
20200531035528 17 277 3.2 4.8 0.00 0.15 0.15 61 1008.9
20200531035020 17 335 1.6 4.8 0.00 0.15 0.15 61 1008.9
20200531034531 17 230 1.6 3.2 0.00 0.15 0.15 61 1008.9
20200531034024 17 203 1.6 3.2 0.00 0.15 0.15 61 1008.8
20200531033516 17 276 3.2 6.4 0.00 0.15 0.15 61 1008.8
20200531033027 17 234 4.8 8.0 0.00 0.15 0.15 61 1008.9
20200531032520 17 225 3.2 4.8 0.00 0.15 0.15 61 1008.9
20200531032030 17 344 3.2 6.4 0.00 0.15 0.15 62 1008.9
20200531031523 17 298 3.2 8.0 0.00 0.15 0.15 63 1008.9
20200531031015 17 234 4.8 8.0 0.00 0.15 0.15 64 1008.9
20200531030526 17 236 1.6 6.4 0.00 0.15 0.15 65 1008.8
20200531030019 16 280 3.2 8.0 0.00 0.15 0.15 66 1008.8
20200531025530 16 220 3.2 8.0 0.00 0.15 0.15 73 1008.8
20200531025022 15 175 1.6 4.8 0.00 0.15 0.15 79 1008.7
20200531024515 15 270 0.0 4.8 0.00 0.15 0.15 83 1008.6
20200531024025 15 0.0 0.0 0.00 0.15 0.15 83 1008.5
20200531023518 15 0.0 0.0 0.00 0.15 0.15 83 1008.5
20200531023029 15 0.0 0.0 0.00 0.15 0.15 83 1008.5
20200531022521 15 0.0 0.0 0.00 0.15 0.15 83 1008.5
20200531022032 15 0.0 0.0 0.00 0.15 0.15 83 1008.5
20200531021525 15 0.0 0.0 0.00 0.15 0.15 82 1008.5
20200531021018 15 0.0 0.0 0.00 0.15 0.15 82 1008.5
20200531020528 15 0.0 0.0 0.00 0.15 0.15 82 1008.6
20200531020021 15 0.0 0.0 0.00 0.15 0.15 82 1008.6
20200531015532 15 0.0 0.0 0.00 0.15 0.15 82 1008.7
20200531015024 16 0.0 0.0 0.00 0.15 0.15 80 1008.7
20200531014517 16 0.0 0.0 0.00 0.15 0.15 80 1008.6
20200531014028 16 0.0 0.0 0.00 0.15 0.15 81 1008.5
20200531013520 16 0.0 0.0 0.00 0.15 0.15 81 1008.5
20200531013031 16 0.0 0.0 0.00 0.15 0.15 80 1008.4
20200531012524 16 0.0 0.0 0.00 0.15 0.15 80 1008.4
20200531012017 16 0.0 0.0 0.00 0.15 0.15 80 1008.2
20200531011527 16 0.0 0.0 0.00 0.15 0.15 79 1008.0
20200531011020 17 0.0 0.0 0.00 0.15 0.15 78 1008.0
20200531010524 17 0.0 0.0 0.00 0.15 0.15 77 1008.0
20200531010023 17 0.0 0.0 0.00 0.15 0.15 77 1008.0
20200531005516 17 0.0 0.0 0.00 0.15 0.15 77 1008.0
20200531005020 18 0.0 0.0 0.00 0.15 0.15 76 1008.0
20200531004519 18 0.0 0.0 0.00 0.15 0.15 75 1008.0
20200531004018 18 0.0 0.0 0.00 0.15 0.15 74 1008.0
20200531003516 18 0.0 0.0 0.00 0.15 0.15 73 1008.0
20200531003015 19 0.0 0.0 0.00 0.15 0.15 72 1007.9
20200531002526 19 0.0 0.0 0.00 0.15 0.15 70 1007.9
20200531002019 20 0.0 0.0 0.00 0.15 0.15 68 1007.9
20200531001529 20 0.0 0.0 0.00 0.15 0.15 66 1007.9
20200531001024 20 0.0 0.0 0.00 0.15 0.15 65 1007.9
20200531000515 21 0.0 0.0 0.00 0.15 0.15 64 1007.9
20200531000027 21 0.0 0.0 0.00 0.15 0.15 63 1007.9
20200530235518 21 0.0 0.0 0.00 0.15 0.15 62 1007.8
20200530235029 22 0.0 0.0 0.00 0.15 0.15 60 1007.7
20200530234521 22 0.0 0.0 0.00 0.15 0.15 59 1007.8
20200530234032 22 0.0 0.0 0.00 0.15 0.15 58 1007.8
20200530233525 22 0.0 0.0 0.00 0.15 0.15 56 1007.8
20200530233017 23 0.0 0.0 0.00 0.15 0.15 55 1007.7
20200530232528 23 0.0 0.0 0.00 0.15 0.15 53 1007.7
20200530232021 23 0.0 0.0 0.00 0.15 0.15 51 1007.8
20200530231531 24 0.0 0.0 0.00 0.15 0.15 50 1007.8
20200530231024 24 0.0 0.0 0.00 0.15 0.15 48 1007.8
20200530230517 24 0.0 0.0 0.00 0.15 0.15 48 1007.6
20200530230028 25 0.0 0.0 0.00 0.15 0.15 46 1007.6
20200530225520 25 0.0 0.0 0.00 0.15 0.15 44 1007.6
20200530225031 25 0.0 0.0 0.00 0.15 0.15 42 1007.6
20200530224523 25 245 1.6 4.8 0.00 0.15 0.15 42 1007.5
20200530224016 25 232 1.6 4.8 0.00 0.15 0.15 41 1007.4
20200530223527 25 57 1.6 8.0 0.00 0.15 0.15 41 1007.4
20200530223019 25 204 3.2 8.0 0.00 0.15 0.15 42 1007.4
20200530222530 25 221 4.8 11.3 0.00 0.15 0.15 41 1007.4
20200530222023 26 219 3.2 8.0 0.00 0.15 0.15 41 1007.4
20200530221515 26 227 4.8 8.0 0.00 0.15 0.15 40 1007.4
20200530221026 26 221 3.2 6.4 0.00 0.15 0.15 40 1007.4
20200530220519 26 11 3.2 4.8 0.00 0.15 0.15 40 1007.3
20200530220030 27 220 1.6 4.8 0.00 0.15 0.15 40 1007.3
20200530215522 27 186 1.6 4.8 0.00 0.15 0.15 41 1007.3
20200530215015 26 190 1.6 6.4 0.00 0.15 0.15 40 1007.3
20200530214526 26 231 3.2 6.4 0.00 0.15 0.15 40 1007.3
20200530214018 26 183 3.2 6.4 0.00 0.15 0.15 40 1007.3
20200530213529 26 124 3.2 4.8 0.00 0.15 0.15 41 1007.3
20200530213022 26 241 3.2 11.3 0.00 0.15 0.15 39 1007.3
20200530212526 27 261 3.2 8.0 0.00 0.15 0.15 38 1007.3
20200530212025 27 198 4.8 8.0 0.00 0.15 0.15 38 1007.4
20200530211517 27 256 3.2 6.4 0.00 0.15 0.15 39 1007.4
20200530211022 28 209 4.8 8.0 0.00 0.15 0.15 38 1007.4
20200530210521 27 283 6.4 9.7 0.00 0.15 0.15 39 1007.4
20200530210019 26 269 4.8 8.0 0.00 0.15 0.15 40 1007.4
20200530205518 26 290 4.8 8.0 0.00 0.15 0.15 41 1007.3
20200530205017 27 241 6.4 9.7 0.00 0.15 0.15 39 1007.3
20200530204516 28 206 8.0 14.5 0.00 0.15 0.15 38 1007.3
20200530204020 28 207 3.2 9.7 0.00 0.15 0.15 39 1007.3
20200530203531 27 206 4.8 8.0 0.00 0.15 0.15 39 1007.3
20200530203024 28 233 6.4 9.7 0.00 0.15 0.15 38 1007.1
20200530202517 28 258 4.8 8.0 0.00 0.15 0.15 37 1007.1
20200530202027 27 12 3.2 6.4 0.00 0.15 0.15 38 1007.2
20200530201520 27 268 6.4 9.7 0.00 0.15 0.15 37 1007.3
20200530201030 27 184 4.8 9.7 0.00 0.15 0.15 38 1007.3
20200530200523 27 215 6.4 12.9 0.00 0.15 0.15 37 1007.2
20200530200015 28 173 4.8 9.7 0.00 0.15 0.15 38 1007.2
20200530195526 27 207 6.4 9.7 0.00 0.15 0.15 39 1007.1
20200530195019 27 256 6.4 9.7 0.00 0.15 0.15 38 1007.1
20200530194529 27 238 6.4 8.0 0.00 0.15 0.15 39 1007.1
20200530194022 27 216 6.4 9.7 0.00 0.15 0.15 38 1007.1
20200530193515 27 245 6.4 9.7 0.00 0.15 0.15 38 1007.1
20200530193025 27 243 6.4 9.7 0.00 0.15 0.15 38 1007.2
20200530192518 27 284 8.0 12.9 0.00 0.15 0.15 39 1007.2
20200530192029 27 283 6.4 8.0 0.00 0.15 0.15 39 1007.2
20200530191522 27 211 6.4 8.0 0.00 0.15 0.15 38 1007.1
20200530191032 27 208 6.4 11.3 0.00 0.15 0.15 38 1007.2
20200530190525 27 200 6.4 12.9 0.00 0.15 0.15 38 1007.4
20200530190018 27 223 6.4 11.3 0.00 0.15 0.15 38 1007.4
20200530185529 27 227 6.4 11.3 0.00 0.15 0.15 39 1007.3
20200530185021 27 153 6.4 12.9 0.00 0.15 0.15 39 1007.2
20200530184532 27 196 8.0 14.5 0.00 0.15 0.15 39 1007.3
20200530184025 27 266 6.4 14.5 0.00 0.15 0.15 38 1007.3
20200530183517 27 220 8.0 12.9 0.00 0.15 0.15 38 1007.3
20200530183029 27 223 6.4 12.9 0.00 0.15 0.15 40 1007.3
20200530182521 27 261 6.4 11.3 0.00 0.15 0.15 40 1007.3
20200530182032 27 217 6.4 11.3 0.00 0.15 0.15 39 1007.4
20200530181524 27 240 8.0 12.9 0.00 0.15 0.15 40 1007.4
20200530181017 26 205 8.0 12.9 0.00 0.15 0.15 40 1007.4
20200530180528 27 208 8.0 11.3 0.00 0.15 0.15 40 1007.3
20200530180020 27 166 9.7 16.1 0.00 0.15 0.15 40 1007.3
20200530175531 26 261 8.0 11.3 0.00 0.15 0.15 41 1007.6
20200530175024 26 192 6.4 12.9 0.00 0.15 0.15 42 1007.6
20200530174516 27 213 8.0 11.3 0.00 0.15 0.15 42 1007.6
20200530174027 27 208 4.8 8.0 0.00 0.15 0.15 44 1007.6
20200530173520 26 151 4.8 9.7 0.00 0.15 0.15 42 1007.6
20200530173024 26 148 6.4 11.3 0.00 0.15 0.15 42 1007.6
20200530172523 26 195 6.4 12.9 0.00 0.15 0.15 42 1007.6
20200530172016 26 48 8.0 14.5 0.00 0.15 0.15 42 1007.7
20200530171521 26 165 6.4 12.9 0.00 0.15 0.15 43 1007.7
20200530171019 25 228 8.0 16.1 0.00 0.15 0.15 43 1007.8
20200530170518 25 229 8.0 12.9 0.00 0.15 0.15 44 1008.0
20200530170016 25 217 6.4 11.3 0.00 0.15 0.15 43 1008.0
20200530165515 25 216 8.0 12.9 0.00 0.15 0.15 44 1008.0
20200530165026 25 244 8.0 12.9 0.00 0.15 0.15 45 1008.0
20200530164519 25 237 6.4 11.3 0.00 0.15 0.15 45 1007.9
20200530164029 25 195 6.4 11.3 0.00 0.15 0.15 46 1007.8
20200530163522 25 231 8.0 12.9 0.00 0.15 0.15 46 1007.8
20200530163015 25 206 4.8 8.0 0.00 0.15 0.15 47 1008.3
20200530162525 25 245 4.8 9.7 0.00 0.15 0.15 47 1008.3
20200530162018 25 352 6.4 14.5 0.00 0.15 0.15 47 1008.2
20200530161528 25 235 6.4 9.7 0.00 0.15 0.15 47 1008.1
20200530161021 24 248 8.0 14.5 0.00 0.15 0.15 47 1008.1
20200530160532 25 286 8.0 12.9 0.00 0.15 0.15 48 1008.0
20200530160025 25 220 8.0 12.9 0.00 0.15 0.15 48 1008.0
20200530155518 25 230 4.8 11.3 0.00 0.15 0.15 51 1008.0
20200530155028 24 138 6.4 9.7 0.00 0.15 0.15 51 1008.0
20200530154521 24 236 4.8 9.7 0.00 0.15 0.15 51 1008.0
20200530154031 24 234 3.2 9.7 0.00 0.15 0.15 52 1007.9
20200530153524 24 203 8.0 11.3 0.00 0.15 0.15 50 1007.9
20200530153017 24 234 8.0 14.5 0.00 0.15 0.15 49 1007.9
20200530152528 25 197 9.7 14.5 0.00 0.15 0.15 47 1007.9
20200530152020 25 348 8.0 16.1 0.00 0.15 0.15 49 1007.9
20200530151531 25 195 9.7 14.5 0.00 0.15 0.15 47 1007.9
20200530151024 25 219 9.7 12.9 0.00 0.15 0.15 48 1007.9
20200530150516 25 231 9.7 17.7 0.00 0.15 0.15 49 1007.7
20200530150027 25 250 9.7 14.5 0.00 0.15 0.15 49 1007.7
20200530145520 25 234 9.7 17.7 0.00 0.15 0.15 50 1007.9
20200530145030 25 200 4.8 8.0 0.00 0.15 0.15 51 1007.9
20200530144523 25 279 4.8 11.3 0.00 0.15 0.15 54 1007.8
20200530144016 25 229 6.4 9.7 0.00 0.15 0.15 53 1007.6
20200530143527 24 202 4.8 12.9 0.00 0.15 0.15 55 1007.6
20200530143019 24 290 8.0 14.5 0.00 0.15 0.15 55 1007.5
20200530142530 25 179 6.4 8.0 0.00 0.15 0.15 57 1007.5
20200530142022 24 201 4.8 9.7 0.00 0.15 0.15 58 1007.6
20200530141515 24 232 6.4 12.9 0.00 0.15 0.15 59 1007.7
20200530141026 24 309 4.8 8.0 0.00 0.15 0.15 61 1007.7
20200530140518 23 216 8.0 16.1 0.00 0.15 0.15 61 1007.8
20200530140029 23 249 6.4 12.9 0.00 0.15 0.15 61 1007.8
20200530135522 23 215 4.8 12.9 0.00 0.15 0.15 65 1007.9
20200530135026 23 163 4.8 9.7 0.00 0.15 0.15 64 1007.9
20200530134525 23 242 8.0 16.1 0.00 0.15 0.15 64 1007.9
20200530134017 23 194 8.0 11.3 0.00 0.15 0.15 65 1007.9
20200530133522 22 212 6.4 14.5 0.00 0.15 0.15 67 1007.9
20200530133021 22 195 6.4 11.3 0.00 0.15 0.15 67 1007.8
20200530132519 22 186 4.8 8.0 0.00 0.15 0.15 67 1007.8
20200530132018 22 180 8.0 9.7 0.00 0.15 0.15 68 1007.9
20200530131517 22 200 8.0 14.5 0.00 0.15 0.15 70 1007.9
20200530131015 22 271 4.8 9.7 0.00 0.15 0.15 72 1007.9
20200530130520 22 272 8.0 16.1 0.00 0.15 0.15 74 1007.8
20200530130031 22 285 8.0 14.5 0.00 0.15 0.15 79 1007.8
20200530125524 22 203 6.4 12.9 0.00 0.15 0.15 82 1007.7
20200530125016 21 169 4.8 11.3 0.00 0.15 0.15 84 1007.7
20200530124527 21 252 8.0 12.9 0.00 0.15 0.15 85 1007.6
20200530124020 21 237 4.8 9.7 0.00 0.15 0.15 88 1007.5
20200530123530 21 256 4.8 6.4 0.00 0.15 0.15 91 1007.5
20200530123023 21 185 4.8 6.4 0.00 0.15 0.15 96 1007.5
20200530122515 21 214 4.8 8.0 0.00 0.15 0.15 97 1007.5
20200530122026 21 191 3.2 8.0 0.00 0.15 0.15 97 1007.5
20200530121519 21 256 3.2 6.4 0.00 0.15 0.15 99 1007.4
20200530121030 21 235 3.2 6.4 0.00 0.15 0.15 99 1007.4
20200530120522 21 248 1.6 3.2 0.00 0.15 0.15 99 1007.4
20200530120033 21 153 1.6 4.8 0.00 0.15 0.15 99 1007.4
20200530115526 20 213 3.2 6.4 0.00 0.15 0.15 99 1007.3
20200530115018 20 241 3.2 11.3 0.00 0.15 0.15 99 1007.3
20200530114529 20 166 3.2 9.7 0.00 0.15 0.15 99 1007.3
20200530114021 20 200 3.2 4.8 0.00 0.15 0.15 99 1007.3
20200530113532 20 226 3.2 6.4 0.00 0.15 0.15 99 1007.3
20200530113025 20 214 3.2 6.4 0.00 0.15 0.15 99 1007.1
20200530112517 20 237 4.8 8.0 0.00 0.15 0.15 99 1007.1
20200530112028 20 194 3.2 6.4 0.00 0.15 0.15 99 1007.2
20200530111521 20 184 3.2 4.8 0.00 0.15 0.15 99 1007.2
20200530111032 20 196 1.6 4.8 0.00 0.15 0.15 99 1007.2
20200530110524 20 252 3.2 8.0 0.00 0.15 0.15 99 1007.3
20200530110017 20 211 3.2 6.4 0.00 0.15 0.15 99 1007.3
20200530105528 20 198 3.2 9.7 0.00 0.15 0.15 99 1007.3
20200530105020 20 312 3.2 6.4 0.00 0.15 0.15 99 1007.3
20200530104531 20 302 3.2 8.0 0.00 0.15 0.15 99 1007.3
20200530104024 20 185 1.6 4.8 0.00 0.15 0.15 99 1007.3
20200530103516 20 171 1.6 4.8 0.00 0.15 0.15 99 1007.3
20200530103027 20 137 1.6 3.2 0.00 0.15 0.15 99 1007.2
20200530102519 20 245 1.6 4.8 0.00 0.15 0.15 99 1007.2
20200530102030 20 270 0.0 3.2 0.00 0.15 0.15 99 1007.2
20200530101523 20 150 1.6 4.8 0.00 0.15 0.15 99 1007.1
20200530101016 20 128 1.6 6.4 0.00 0.15 0.15 99 1007.1
20200530100526 20 0.0 0.0 0.00 0.15 0.15 99 1007.2
20200530100019 20 0.0 0.0 0.00 0.15 0.15 99 1007.2
20200530095524 20 227 1.6 6.4 0.00 0.15 0.15 99 1007.3
20200530095023 20 215 1.6 6.4 0.00 0.15 0.15 99 1007.3
20200530094515 20 203 0.0 4.8 0.00 0.15 0.15 99 1007.3
20200530094020 20 0.0 0.0 0.00 0.15 0.15 99 1007.2
20200530093518 20 203 1.6 4.8 0.00 0.15 0.15 99 1007.2
20200530093018 20 196 1.6 6.4 0.00 0.15 0.15 99 1006.9
20200530092516 20 215 1.6 6.4 0.00 0.15 0.15 99 1006.9
20200530092032 20 248 0.0 3.2 0.00 0.15 0.15 99 1006.9
20200530091018 20 0.0 4.8 0.00 0.15 0.15 99 1006.8
20200530090529 20 180 0.0 3.2 0.00 0.15 0.15 99 1006.5
20200530090021 20 135 0.0 3.2 0.00 0.15 0.15 99 1006.5
20200530085532 20 180 0.0 3.2 0.00 0.15 0.15 99 1006.8
20200530085025 20 145 1.6 6.4 0.00 0.15 0.15 98 1006.8
20200530084517 20 188 1.6 4.8 0.05 0.15 0.15 97 1006.8
20200530084028 20 113 0.0 3.2 0.10 0.15 0.15 97 1006.8
20200530083521 20 203 0.0 3.2 0.15 0.15 0.15 96 1006.9
20200530083031 20 0.0 3.2 0.15 0.15 0.15 96 1007.1
20200530082524 20 203 1.6 4.8 0.15 0.15 0.15 96 1007.1
20200530082017 20 147 1.6 4.8 0.15 0.15 0.15 94 1007.2
20200530081527 20 185 1.6 4.8 0.15 0.15 0.15 94 1007.3
20200530081020 20 210 0.0 3.2 0.15 0.15 0.15 92 1007.3
20200530080531 20 190 1.6 3.2 0.15 0.15 0.15 92 1007.4
20200530080023 20 196 1.6 4.8 0.15 0.15 0.15 91 1007.4
20200530075516 20 203 0.0 3.2 0.15 0.15 0.15 91 1007.7
20200530075027 20 152 1.6 3.2 0.15 0.15 0.15 91 1007.7
20200530074520 21 201 3.2 8.0 0.10 0.10 0.10 90 1007.8
20200530074030 21 172 4.8 8.0 0.05 0.05 0.05 88 1007.8
20200530073523 21 202 3.2 9.7 0.00 0.00 0.00 87 1007.8
20200530073015 21 187 4.8 9.7 0.00 0.00 0.00 87 1007.6
20200530072526 21 221 4.8 8.0 0.00 0.00 0.00 87 1007.6
20200530072018 21 200 1.6 4.8 0.00 0.00 0.00 87 1007.7
20200530071529 21 280 1.6 6.4 0.00 0.00 0.00 87 1007.8
20200530071022 21 174 1.6 4.8 0.00 0.00 0.00 86 1007.8